Vertical_Velocity
-0 -1 -1 -1 -1 -2 -3 -2 -3 -4 -7 -4 -5 -1 -3 -2 -1 -1 1 -0 1 2 0 2 4 -0 1 -0 -1 1 0 0 3 -2 1 -5 3 7 1 0 -1 -6 21
-1 -1 -1 1 -2 -2 -0 -2 -5 -4 -4 -4 -1 -3 -2 -2 -1 -1 -0 -2 1 1 0 -0 2 1 1 -0 -1 1 1 0 1 -2 -0 3 4 1 3 2 3 12 -4
1 1 1 -2 -2 -0 -1 -4 -3 -3 -4 -3 -2 -5 -3 -3 -1 -3 -1 -0 -1 -1 -1 -2 -1 1 1 0 0 -0 0 2 1 -4 3 -0 2 1 -0 24 12 5 6
-0 1 -2 -2 -1 -2 -2 -2 -2 -5 -5 -4 -1 -5 -6 -2 -3 -2 -2 -2 -1 -1 -2 -2 -1 1 0 1 -0 -0 0 2 2 -4 1 -1 6 -1 7 10 3 14 2
-2 -2 1 -1 -2 -2 -2 -2 -2 -8 -6 -6 1 -4 -6 -3 -6 -2 -1 -2 -2 -1 -2 -2 -1 -0 0 0 -0 0 0 2 -0 -2 -2 -1 -2 -3 3 -1 13 11 5
-2 -0 -0 -1 -1 -1 -2 -0 -2 -6 -5 -7 1 -3 -7 -2 -4 -3 -1 -1 -1 -0 -0 -0 -2 -1 -1 -1 -1 0 -0 2 -2 -1 -4 -1 -0 3 0 5 6 14 8
-1 -1 -0 -0 -1 -2 -3 -2 0 -4 -4 -8 -1 -1 -6 -4 -6 -3 -2 -1 -0 -0 -0 -1 0 -0 -0 0 -1 0 2 2 1 -2 -3 -0 0 2 2 0 7 6 7
0 -1 0 -1 -1 -3 -3 -3 2 -5 -4 -10 -4 1 -4 -2 -5 0 -4 -1 -1 -1 -1 -0 -0 -1 -1 0 -0 -0 2 2 1 1 -4 -5 1 1 5 6 -4 3 4
-1 -1 -0 -1 -1 -4 -2 1 0 3 -3 -4 -13 -1 2 -3 -1 0 -2 -2 -0 -0 -1 0 1 1 1 -1 -1 -1 1 0 1 -2 -2 -4 -2 2 0 1 4 8 -4
-0 -1 -1 -3 -2 -2 -4 -0 3 0 -2 -4 -10 -7 1 1 -1 -2 -2 -2 -3 -1 -1 0 1 1 2 1 0 1 -2 -0 2 2 -0 -5 -5 1 4 -1 1 -2 0
-1 -3 -3 -4 -3 -3 -3 -2 4 5 2 -2 -5 -11 -6 -1 2 1 -2 -1 -2 -4 -1 -1 -0 0 2 2 1 0 -2 1 1 3 -1 -0 -2 3 3 1 -0 3 -5
-2 -3 -4 -3 -4 -3 -2 -4 -5 0 -0 -2 -2 -3 -11 -3 1 2 2 2 -0 -2 -4 -1 -1 -1 0 0 0 -2 -3 -2 -1 -1 2 -0 0 3 3 5 4 -2 -2
-1 -2 -2 -2 -1 -5 -3 -3 -4 1 -0 0 2 2 -3 -7 -1 -5 -2 -1 2 4 -3 -4 -1 -0 0 1 0 -0 -2 -0 -0 0 0 0 -1 -1 -2 0 3 4 8
-2 -2 -2 2 -1 -5 -9 -6 -8 -4 -0 -1 1 1 2 1 -1 -2 -0 -0 -5 -2 3 -1 -4 -0 -1 -1 -1 -1 0 -1 -1 -1 -2 -3 -2 2 0 -0 2 1 4
-1 -0 0 0 0 1 -14 -6 1 -8 -5 1 2 -1 7 5 0 2 2 4 1 -3 0 -1 -4 -3 -1 -1 -2 -3 -0 -0 2 -1 0 1 -3 -3 -0 1 -3 -4 5
-3 -0 1 -1 -4 -5 5 4 -17 -9 -6 -4 -5 -2 2 -2 -1 0 1 2 -0 -1 1 1 -2 -1 -0 -1 -1 -1 -1 0 1 0 0 1 0 0 0 1 -2 -4 -0
-0 -0 -1 -2 -5 -2 -1 -1 15 -0 -22 -1 -5 -2 -5 -1 -2 0 1 -1 -2 -1 1 1 -1 -2 -1 -1 -1 -1 1 -1 -2 -1 -1 0 -1 1 2 1 0 2 6
-1 -0 0 -1 -1 -2 -2 -0 -4 -3 12 4 -7 0 -2 -1 -2 -1 0 -1 0 1 1 -0 1 -1 -1 0 -1 -1 -1 -2 -2 -1 1 1 1 0 1 -1 -0 4 2
-2 -3 -6 -6 -4 -2 1 -2 -4 -6 -5 -2 -0 -7 -3 -5 -3 -0 -1 -1 1 -0 -1 -0 0 1 0 -0 -1 -3 -2 -2 -3 -3 0 2 1 2 2 0 2 2 2
-1 -1 -2 -1 -1 -2 -1 -3 -3 -5 -5 -3 -2 -0 1 -1 1 -0 1 0 0 0 -1 0 1 1 2 1 0 -2 -2 -2 -1 -2 0 -0 1 -0 -0 1 1 1 6
-4 -5 -4 -3 -1 -0 -1 -2 -3 -2 -2 -3 -3 -1 -2 -1 -0 1 0 0 1 -0 -1 1 0 1 0 1 0 0 0 0 -1 -1 -1 0 -1 0 1 1 -1 4 4
-2 -3 -3 -3 -2 -2 -2 -1 -1 -3 -1 -2 -3 -2 -2 -1 -1 -1 -0 -1 3 -1 -2 -1 0 1 0 0 0 0 1 0 -1 -1 -0 0 1 0 -1 1 4 4 3
-2 -3 -2 -3 -1 -4 -6 -4 -1 -2 -2 -2 -1 -0 -1 -0 -0 -1 0 0 2 -3 -0 1 2 -0 1 0 1 1 2 1 1 1 1 1 1 2 2 2 4 2 4
-2 -1 -2 -3 -1 -1 -3 -6 -1 -2 -2 -2 -2 -1 -1 -0 -0 1 2 2 -1 1 0 2 1 -0 1 1 1 2 2 2 2 0 1 0 0 1 -1 2 2 2 2
-2 -1 -4 -2 -3 -4 -5 -4 -1 -2 -2 -2 -2 -1 -1 -0 -1 1 3 4 4 0 -1 2 1 2 2 2 1 1 2 2 3 3 1 -1 -1 0 1 -1 -1 1 -1
-1 -1 -2 -2 -2 -3 -5 -3 -2 -1 -2 -3 -3 -1 -0 -1 -0 2 3 4 3 2 0 3 1 1 2 1 1 1 1 1 1 2 2 1 1 2 -1 4 -1 2 2
Height
5627 5620 5613 5605 5597 5587 5576 5565 5552 5538 5523 5507 5488 5470 5447 5425 5404 5386 5369 5356 5348 5343 5340 5343 5349 5356 5365 5371 5374 5376 5378 5379 5382 5387 5400 5411 5421 5433 5443 5454 5465 5473 5482
5616 5609 5602 5594 5585 5574 5562 5549 5536 5523 5506 5489 5471 5450 5428 5406 5386 5367 5353 5340 5332 5328 5327 5329 5337 5345 5355 5362 5366 5369 5372 5374 5377 5383 5394 5406 5417 5428 5437 5449 5461 5467 5478
5604 5597 5590 5581 5571 5560 5548 5535 5522 5508 5491 5473 5453 5432 5411 5390 5371 5354 5341 5329 5321 5317 5316 5319 5327 5336 5346 5354 5359 5363 5367 5369 5373 5379 5390 5402 5412 5423 5432 5446 5453 5463 5475
5594 5586 5578 5569 5558 5546 5534 5522 5508 5493 5477 5458 5436 5416 5397 5379 5361 5347 5334 5323 5314 5310 5308 5312 5320 5329 5339 5347 5353 5358 5362 5366 5369 5376 5385 5396 5407 5418 5426 5437 5449 5458 5469
5582 5574 5566 5556 5545 5534 5522 5509 5494 5478 5461 5443 5424 5405 5387 5371 5357 5344 5332 5321 5312 5306 5305 5309 5316 5325 5334 5342 5348 5354 5358 5362 5366 5372 5383 5392 5403 5412 5422 5432 5444 5455 5462
5570 5562 5553 5543 5533 5522 5510 5496 5480 5464 5446 5430 5412 5396 5379 5366 5355 5342 5333 5322 5313 5308 5306 5309 5315 5322 5330 5338 5344 5350 5355 5359 5363 5368 5379 5389 5398 5407 5417 5426 5440 5448 5456
5559 5551 5541 5532 5522 5510 5498 5484 5468 5451 5433 5418 5404 5389 5372 5362 5353 5342 5333 5325 5316 5311 5308 5310 5315 5321 5328 5335 5342 5347 5352 5357 5361 5365 5374 5385 5394 5402 5413 5423 5435 5443 5450
5547 5539 5530 5520 5509 5498 5486 5473 5457 5437 5422 5408 5396 5382 5368 5360 5351 5343 5334 5326 5319 5313 5311 5312 5315 5320 5326 5332 5339 5345 5350 5354 5359 5363 5370 5380 5390 5400 5408 5418 5427 5438 5448
5535 5527 5518 5508 5497 5486 5475 5461 5445 5428 5413 5398 5386 5376 5366 5357 5350 5342 5334 5326 5320 5315 5312 5312 5314 5318 5323 5329 5335 5341 5347 5351 5356 5361 5366 5375 5385 5396 5405 5414 5423 5433 5440
5523 5514 5505 5496 5486 5475 5464 5450 5435 5419 5405 5391 5377 5367 5362 5355 5347 5340 5333 5327 5321 5316 5312 5311 5311 5314 5318 5324 5330 5337 5342 5348 5353 5359 5364 5371 5381 5391 5401 5410 5419 5428 5436
5510 5502 5493 5484 5474 5464 5451 5438 5425 5411 5398 5386 5372 5361 5356 5351 5345 5339 5332 5327 5321 5316 5312 5310 5309 5310 5313 5319 5325 5331 5337 5343 5349 5355 5361 5367 5377 5387 5396 5406 5415 5424 5433
5498 5490 5481 5472 5462 5451 5440 5427 5414 5402 5390 5379 5367 5357 5349 5345 5341 5335 5329 5324 5319 5314 5311 5308 5307 5307 5309 5312 5318 5324 5331 5338 5344 5350 5357 5363 5371 5381 5392 5402 5412 5421 5430
5486 5478 5469 5459 5449 5439 5428 5416 5405 5394 5384 5373 5362 5354 5346 5340 5335 5329 5324 5319 5315 5311 5306 5304 5303 5302 5304 5307 5311 5318 5325 5332 5339 5345 5351 5358 5365 5374 5385 5397 5408 5418 5427
5474 5466 5458 5448 5437 5425 5415 5405 5394 5387 5376 5365 5356 5349 5343 5337 5331 5325 5320 5314 5308 5305 5302 5299 5298 5298 5299 5301 5305 5312 5318 5325 5332 5339 5345 5352 5361 5371 5381 5392 5403 5413 5423
5463 5455 5447 5437 5427 5415 5401 5395 5385 5375 5368 5359 5349 5342 5337 5332 5328 5322 5316 5311 5304 5299 5296 5293 5291 5291 5293 5295 5299 5305 5313 5320 5327 5334 5341 5348 5356 5365 5376 5386 5396 5408 5419
5452 5444 5436 5427 5416 5407 5398 5381 5371 5366 5358 5348 5340 5334 5329 5325 5320 5315 5310 5305 5299 5294 5291 5288 5285 5284 5286 5288 5292 5299 5306 5313 5321 5329 5336 5344 5352 5360 5370 5380 5391 5403 5414
5441 5434 5426 5416 5407 5397 5388 5381 5373 5354 5347 5341 5333 5327 5321 5318 5314 5310 5305 5299 5293 5289 5286 5283 5280 5279 5279 5281 5285 5291 5299 5306 5315 5323 5332 5340 5348 5356 5365 5375 5385 5397 5408
5430 5423 5415 5406 5397 5387 5379 5372 5364 5357 5347 5336 5328 5323 5317 5312 5309 5304 5299 5294 5288 5283 5280 5277 5275 5273 5273 5274 5278 5284 5291 5300 5310 5319 5328 5336 5344 5352 5361 5371 5381 5391 5401
5418 5411 5403 5395 5387 5379 5372 5364 5356 5347 5338 5330 5325 5318 5312 5307 5303 5299 5294 5289 5283 5278 5275 5271 5270 5268 5267 5267 5271 5277 5285 5294 5305 5314 5324 5332 5341 5349 5358 5366 5376 5385 5396
5407 5400 5393 5385 5377 5370 5364 5357 5349 5340 5332 5324 5319 5315 5311 5306 5302 5297 5291 5285 5279 5275 5270 5267 5266 5264 5262 5262 5266 5272 5280 5290 5300 5310 5320 5329 5338 5346 5355 5363 5372 5382 5393
5394 5387 5381 5376 5369 5363 5357 5350 5343 5335 5326 5318 5314 5309 5304 5301 5297 5292 5286 5281 5276 5272 5267 5265 5264 5263 5261 5261 5265 5271 5278 5287 5296 5307 5317 5326 5335 5344 5352 5360 5369 5379 5389
5382 5377 5371 5366 5361 5356 5350 5344 5336 5328 5321 5314 5309 5304 5300 5297 5293 5288 5283 5279 5274 5270 5265 5263 5263 5262 5262 5263 5267 5272 5278 5285 5294 5305 5315 5324 5334 5342 5350 5358 5367 5377 5386
5373 5368 5363 5359 5354 5349 5343 5337 5331 5323 5315 5309 5305 5301 5298 5294 5290 5286 5282 5277 5272 5268 5264 5262 5262 5263 5263 5265 5269 5274 5280 5286 5295 5305 5314 5324 5332 5341 5349 5357 5366 5376 5386
5363 5359 5355 5351 5347 5342 5337 5331 5325 5318 5311 5305 5301 5298 5294 5291 5288 5285 5281 5276 5273 5268 5264 5262 5262 5263 5264 5265 5270 5276 5281 5289 5297 5306 5314 5323 5332 5340 5347 5356 5365 5375 5384
5355 5351 5348 5343 5338 5334 5330 5325 5319 5313 5307 5301 5298 5295 5291 5289 5286 5283 5280 5277 5273 5270 5266 5264 5263 5264 5265 5267 5271 5277 5284 5291 5299 5307 5315 5324 5332 5338 5346 5355 5362 5372 5383
5346 5342 5338 5334 5330 5327 5323 5318 5314 5309 5303 5298 5294 5292 5289 5287 5285 5283 5280 5277 5274 5272 5269 5267 5266 5267 5268 5271 5275 5280 5286 5293 5301 5309 5317 5325 5332 5338 5346 5354 5360 5370 5381